IRIDIUM 33 DEB, 33867

Orbit data source: Space-Track

IRIDIUM 33 DEB, 33867 is space debris in LEO originally from a launch on Sun, 14 Sep 1997 UTC launched from the Tyuratam Missile And Space Complex (TTMTR). The debris from Iridium 33, an American commercial communications satellite, has been tracked extensively since its accidental collision with the defunct Russian satellite Cosmos 2251 in 2009. This event, occurring at high speed in low Earth orbit (LEO), generated thousands of pieces of space debris, significantly increasing the risk of further collisions. The Iridium 33 debris cloud has impacted space traffic management and orbital debris mitigation strategies, making it a subject of ongoing study in space situational awareness.

Loading next visibility...
Identifier
33867, 1997-051AL
Orbit
LEO
Country
Flag of USUS
Related business
Manufacturer
Unknown
Mission
Spacecraft
Bus & Motor
Unknown
Mass
Unknown
Launch date (UTC)
1997-09-14 (28 years ago)
Launch vehicle
Unknown
Launch site
Tyuratam Missile And Space Complex (TTMTR)
Object type
Payload
Rocket body
Debris
Shape & HBR
Unknown shape, 0.1 m
Radar Cross Section
Medium (>0.1 m² and <1 m²)

Expand to show TLE details & history
Last TLE update: 9 hours ago

TLE from 9 hours ago
0 IRIDIUM 33 DEB
1 33867U 97051AL  25303.19533633  .00254971  00000-0  78792-2 0  9998
2 33867  86.3642  12.0015 0016562 208.6366 151.3976 15.32363952888384
Epoch: 2025-10-30T04:41Z
TLE epoch observation values (Epoch: 2025-10-30T04:41:17.058Z)
Latitude
-0.00005°
Longitude
-97.07719°
Altitude
481.912 km
Speed
7.619 km/s
True Right ascension
00h 48m 00s
True Declination
0° 00' 00"
Sunlit
Object was in full shadow at epoch
Visualization orbit readout
Latitude
Unknown
Longitude
Unknown
Altitude
Unknown
Speed
Unknown
Apparent Right ascension
Unknown
Apparent Declination
Unknown
Sunlit
N/A
Visualization observer readout
Local Sidereal Time
09:14:59
Azimuth
Unknown
Elevation
Unknown
Doppler factor
Unknown
Orbital elements
Apogee altitude
476.924 km
Perigee altitude
454.255 km
Semi-major axis
6,843.726 km
Eccentricity
0.00166
Inclination
86.3642°
RAAN
12.0015°
Arg. of periapsis
208.6366°
True anomaly
151.48829°
Mean anomaly
151.3976°
Eccentric anomaly
151.44296°
Mean motion
3.83358 °/min
Orbital period
93.91 mins
BSTAR
0.0078792
Loading maneuver chart data...
Computing Atmospheric mass density...

Documentation

Showing up to 5 results
|